Location: Zagreb
(45.8000°N, 16.0000°E)
Time: 02:33:40
(UTC+02:00)

Envisat - Visible Passes

Search period start: 05 October 2023 00:00
Search period end: 15 October 2023 00:00
Orbit: 763 x 764 km, 98.2° (Epoch: 04 October)

Date Brightness Start Highest point End Pass type
(mag) Time Alt. Az. Time Alt. Az. Time Alt. Az.
05 Oct 5.1 03:34:19 10° NE 03:38:08 21° E 03:39:51 18° ESE visible
05 Oct 3.1 05:12:29 10° N 05:17:26 53° WNW 05:20:01 27° SW visible
06 Oct 3.1 04:35:11 10° NNE 04:40:17 74° ESE 04:42:14 38° S visible
06 Oct 4.5 06:15:29 10° NNW 06:18:40 17° WNW 06:21:52 10° W visible
07 Oct 4.4 03:58:18 10° NNE 04:02:56 34° E 04:04:27 28° SE visible
07 Oct 3.7 05:37:21 10° N 05:41:52 33° WNW 05:44:37 20° WSW visible
08 Oct 5.4 03:22:12 10° NE 03:25:22 16° E 03:26:40 15° ESE visible
08 Oct 2.9 04:59:47 10° N 05:04:51 68° WNW 05:06:50 37° SW visible
09 Oct 3.5 04:22:36 10° NNE 04:27:38 57° E 04:29:03 42° SSE visible
09 Oct 4.3 06:02:27 10° NNW 06:06:11 21° WNW 06:09:12 13° WSW visible
10 Oct 4.8 03:45:55 10° NE 03:50:12 27° E 03:51:16 25° ESE visible
10 Oct 3.4 05:24:33 10° N 05:29:18 41° WNW 05:31:25 28° WSW visible
11 Oct 5.7 03:10:27 10° ENE 03:12:34 12° E 03:13:28 12° E visible
11 Oct 2.9 04:47:07 10° NNE 04:52:13 87° WNW 04:53:38 49° SSW visible
11 Oct 4.7 06:28:01 10° NNW 06:30:27 14° WNW 06:32:53 10° W visible
12 Oct 3.9 04:10:05 10° NNE 04:14:57 44° E 04:15:50 40° SE visible
12 Oct 4.0 05:49:31 10° N 05:53:42 26° WNW 05:56:00 19° WSW visible
13 Oct 5.1 03:33:38 10° NE 03:37:27 21° E 03:38:03 21° ESE visible
13 Oct 3.1 05:11:48 10° N 05:16:44 53° WNW 05:18:12 39° WSW visible
14 Oct 3.1 04:34:29 10° NNE 04:39:35 74° ESE 04:40:24 60° SSE visible
14 Oct 4.5 06:14:47 10° NNW 06:17:59 17° WNW 06:20:33 12° W visible
